EA7RX-13 Weather Reports


Display with metric or nautical units.
time (UTC)temp
F
wind
direction
speed
MPH
gust
MPH
rain 1hr
in
rain 24hr
in
rain mn
in
humidity
%
barometer
mb
20260904164632 97 0.0 0.0 0.00 0.00 0.00 40 1014.1
20260904163632 97 0.0 0.0 0.00 0.00 0.00 40 1014.1
20260904162632 98 0.0 0.0 0.00 0.00 0.00 34 1013.9
20260904161632 100 0.0 0.0 0.00 0.00 0.00 34 1013.9
20260904160632 101 0.0 0.0 0.00 0.00 0.00 38 1013.9
20260904155632 100 0.0 0.0 0.00 0.00 0.00 36 1014.1
20260904154632 102 0.0 0.0 0.00 0.00 0.00 35 1014.1
20260904153632 103 0.0 0.0 0.00 0.00 0.00 36 1014.0
20260904152632 104 0.0 0.0 0.00 0.00 0.00 31 1013.9
20260904151632 104 0.0 0.0 0.00 0.00 0.00 27 1014.1
20260904150632 106 0.0 0.0 0.00 0.00 0.00 33 1014.2
20260904145632 106 0.0 0.0 0.00 0.00 0.00 26 1014.1
20260904144632 106 0.0 0.0 0.00 0.00 0.00 26 1014.4
20260904143634 105 0.0 0.0 0.00 0.00 0.00 26 1014.6
20260904142632 106 0.0 0.0 0.00 0.00 0.00 26 1014.7
20260904141632 105 0.0 0.0 0.00 0.00 0.00 28 1015.0
20260904140632 105 0.0 0.0 0.00 0.00 0.00 28 1015.2
20260904135632 104 0.0 0.0 0.00 0.00 0.00 29 1015.5
20260904134632 103 0.0 0.0 0.00 0.00 0.00 30 1015.8
20260904133632 101 0.0 0.0 0.00 0.00 0.00 30 1016.0
20260904132632 102 0.0 0.0 0.00 0.00 0.00 30 1016.0
20260904131632 102 0.0 0.0 0.00 0.00 0.00 29 1016.1
20260904130632 103 0.0 0.0 0.00 0.00 0.00 28 1016.1
20260904125632 104 0.0 0.0 0.00 0.00 0.00 28 1016.0
20260904124632 104 0.0 0.0 0.00 0.00 0.00 28 1016.2
20260904123632 103 0.0 0.0 0.00 0.00 0.00 31 1016.4
20260904122632 104 0.0 0.0 0.00 0.00 0.00 32 1016.4
20260904121632 102 0.0 0.0 0.00 0.00 0.00 30 1016.6
20260904120632 102 0.0 0.0 0.00 0.00 0.00 30 1016.7
20260904115632 102 0.0 0.0 0.00 0.00 0.00 34 1016.8
20260904114632 102 0.0 0.0 0.00 0.00 0.00 30 1017.0
20260904113632 101 0.0 0.0 0.00 0.00 0.00 31 1017.3
20260904112632 101 0.0 0.0 0.00 0.00 0.00 31 1017.4
20260904111632 100 0.0 0.0 0.00 0.00 0.00 32 1017.7
20260904110632 100 0.0 0.0 0.00 0.00 0.00 31 1017.6
20260904105632 100 0.0 0.0 0.00 0.00 0.00 31 1017.7
20260904104632 98 0.0 0.0 0.00 0.00 0.00 32 1017.9
20260904103632 98 0.0 0.0 0.00 0.00 0.00 32 1018.1
20260904102632 96 0.0 0.0 0.00 0.00 0.00 34 1018.3
20260904101632 95 0.0 0.0 0.00 0.00 0.00 34 1018.6
20260904100632 94 0.0 0.0 0.00 0.00 0.00 34 1018.7
20260904095632 93 0.0 0.0 0.00 0.00 0.00 34 1018.8
20260904094632 92 0.0 0.0 0.00 0.00 0.00 35 1018.9
20260904093632 91 0.0 0.0 0.00 0.00 0.00 37 1019.2
20260904091632 90 0.0 0.0 0.00 0.00 0.00 37 1019.3
20260904090632 89 0.0 0.0 0.00 0.00 0.00 39 1019.4
20260904085632 88 0.0 0.0 0.00 0.00 0.00 40 1019.4
20260904084632 88 0.0 0.0 0.00 0.00 0.00 42 1019.5
20260904083632 86 0.0 0.0 0.00 0.00 0.00 42 1019.5
20260904082632 86 0.0 0.0 0.00 0.00 0.00 49 1019.5
20260904081632 85 0.0 0.0 0.00 0.00 0.00 48 1019.6
20260904080632 83 0.0 0.0 0.00 0.00 0.00 50 1019.7
20260904075632 82 0.0 0.0 0.00 0.00 0.00 51 1019.7
20260904074632 81 0.0 0.0 0.00 0.00 0.00 57 1019.7
20260904073632 80 0.0 0.0 0.00 0.00 0.00 60 1019.9
20260904072632 79 0.0 0.0 0.00 0.00 0.00 61 1019.9
20260904071632 78 0.0 0.0 0.00 0.00 0.00 61 1020.2
20260904070632 77 0.0 0.0 0.00 0.00 0.00 62 1020.1
20260904065632 77 0.0 0.0 0.00 0.00 0.00 60 1020.0
20260904064632 76 0.0 0.0 0.00 0.00 0.00 61 1020.0
20260904063632 76 0.0 0.0 0.00 0.00 0.00 56 1019.7
20260904062632 75 0.0 0.0 0.00 0.00 0.00 59 1019.7
20260904061632 75 0.0 0.0 0.00 0.00 0.00 57 1019.6
20260904060632 76 0.0 0.0 0.00 0.00 0.00 55 1019.5
20260904055632 75 0.0 0.0 0.00 0.00 0.00 54 1019.5
20260904054632 76 0.0 0.0 0.00 0.00 0.00 52 1019.2
20260904053632 75 0.0 0.0 0.00 0.00 0.00 53 1019.3
20260904052632 76 0.0 0.0 0.00 0.00 0.00 53 1019.1
20260904051632 76 0.0 0.0 0.00 0.00 0.00 51 1019.1
20260904050632 76 0.0 0.0 0.00 0.00 0.00 53 1019.1
20260904045632 77 0.0 0.0 0.00 0.00 0.00 50 1019.1
20260904044632 77 0.0 0.0 0.00 0.00 0.00 48 1018.9
20260904043632 77 0.0 0.0 0.00 0.00 0.00 49 1018.9
20260904042632 76 0.0 0.0 0.00 0.00 0.00 48 1019.1
20260904041632 77 0.0 0.0 0.00 0.00 0.00 48 1019.1
20260904040632 77 0.0 0.0 0.00 0.00 0.00 49 1018.9
20260904035632 77 0.0 0.0 0.00 0.00 0.00 49 1019.2
20260904034632 78 0.0 0.0 0.00 0.00 0.00 48 1019.1
20260904033632 78 0.0 0.0 0.00 0.00 0.00 46 1019.0
20260904032632 78 0.0 0.0 0.00 0.00 0.00 47 1019.2
20260904031632 78 0.0 0.0 0.00 0.00 0.00 45 1019.2
20260904030632 78 0.0 0.0 0.00 0.00 0.00 44 1019.2
20260904025632 78 0.0 0.0 0.00 0.00 0.00 44 1019.2
20260904024632 79 0.0 0.0 0.00 0.00 0.00 44 1019.2
20260904023632 78 0.0 0.0 0.00 0.00 0.00 44 1019.3
20260904022632 78 0.0 0.0 0.00 0.00 0.00 44 1019.3
20260904021632 79 0.0 0.0 0.00 0.00 0.00 43 1019.4
20260904020632 80 0.0 0.0 0.00 0.00 0.00 42 1019.3
20260904015632 79 0.0 0.0 0.00 0.00 0.00 43 1019.5
20260904014632 79 0.0 0.0 0.00 0.00 0.00 43 1019.4
20260904013632 80 0.0 0.0 0.00 0.00 0.00 41 1019.1
20260904012632 81 0.0 0.0 0.00 0.00 0.00 40 1019.0
20260904011632 82 0.0 0.0 0.00 0.00 0.00 38 1018.9
20260904010632 83 0.0 0.0 0.00 0.00 0.00 37 1018.8
20260904005632 82 0.0 0.0 0.00 0.00 0.00 38 1019.0
20260904004632 82 0.0 0.0 0.00 0.00 0.00 40 1018.9
20260904003632 84 0.0 0.0 0.00 0.00 0.00 36 1018.7
20260904002632 84 0.0 0.0 0.00 0.00 0.00 35 1018.6
20260904001632 84 0.0 0.0 0.00 0.00 0.00 36 1018.6
20260904000632 84 0.0 0.0 0.00 0.00 0.00 35 1018.6
20260903235632 84 0.0 0.0 0.00 0.00 0.00 34 1018.7
20260903234632 84 0.0 0.0 0.00 0.00 0.00 35 1018.8
20260903233632 84 0.0 0.0 0.00 0.00 0.00 34 1018.8
20260903232632 83 0.0 0.0 0.00 0.00 0.00 34 1018.8
20260903231632 83 0.0 0.0 0.00 0.00 0.00 34 1018.8
20260903230632 84 0.0 0.0 0.00 0.00 0.00 33 1018.8
20260903225632 84 0.0 0.0 0.00 0.00 0.00 33 1018.7
20260903224632 83 0.0 0.0 0.00 0.00 0.00 34 1018.8
20260903223632 84 0.0 0.0 0.00 0.00 0.00 34 1018.7
20260903222632 83 0.0 0.0 0.00 0.00 0.00 34 1018.7
20260903221632 84 0.0 0.0 0.00 0.00 0.00 36 1018.6
20260903220632 84 0.0 0.0 0.00 0.00 0.00 38 1018.6
20260903215632 85 0.0 0.0 0.00 0.00 0.00 32 1018.4
20260903214632 85 0.0 0.0 0.00 0.00 0.00 33 1018.4
20260903213632 86 0.0 0.0 0.00 0.00 0.00 34 1018.3
20260903212632 86 0.0 0.0 0.00 0.00 0.00 32 1018.4
20260903211632 86 0.0 0.0 0.00 0.00 0.00 33 1018.3
20260903210632 86 0.0 0.0 0.00 0.00 0.00 33 1018.2
20260903205632 85 0.0 0.0 0.00 0.00 0.00 36 1018.2
20260903204632 85 0.0 0.0 0.00 0.00 0.00 36 1018.1
20260903203632 87 0.0 0.0 0.00 0.00 0.00 34 1017.9
20260903202632 87 0.0 0.0 0.00 0.00 0.00 36 1017.8
20260903201632 86 0.0 0.0 0.00 0.00 0.00 36 1017.6
20260903200632 86 0.0 0.0 0.00 0.00 0.00 37 1017.5
20260903195632 86 0.0 0.0 0.00 0.00 0.00 39 1017.4
20260903194632 87 0.0 0.0 0.00 0.00 0.00 37 1017.2
20260903193632 87 0.0 0.0 0.00 0.00 0.00 38 1017.0
20260903192632 88 0.0 0.0 0.00 0.00 0.00 36 1016.7
20260903191632 88 0.0 0.0 0.00 0.00 0.00 36 1016.6
20260903190632 89 0.0 0.0 0.00 0.00 0.00 38 1016.3
20260903185632 89 0.0 0.0 0.00 0.00 0.00 37 1016.2
20260903184632 90 0.0 0.0 0.00 0.00 0.00 39 1016.2
20260903183632 91 0.0 0.0 0.00 0.00 0.00 36 1016.0
20260903182632 93 0.0 0.0 0.00 0.00 0.00 37 1015.9
20260903181632 95 0.0 0.0 0.00 0.00 0.00 34 1015.8
20260903180632 96 0.0 0.0 0.00 0.00 0.00 31 1015.7
20260903175632 98 0.0 0.0 0.00 0.00 0.00 29 1015.5
20260903174632 100 0.0 0.0 0.00 0.00 0.00 28 1015.4
20260903173632 102 0.0 0.0 0.00 0.00 0.00 25 1015.2
20260903172632 103 0.0 0.0 0.00 0.00 0.00 24 1015.3
20260903171632 103 0.0 0.0 0.00 0.00 0.00 24 1015.2
20260903170632 104 0.0 0.0 0.00 0.00 0.00 23 1015.2
20260903165632 105 0.0 0.0 0.00 0.00 0.00 21 1015.1